User: anonymous   Login
Location: Unspecified
(0.0000°N, 0.0000°E)
Time: 05:16:48
(UTC+00:00)
Language:

LEMUR 2 WINGO - Orbit

View from above orbital plane
View from above orbital plane
View from above satellite
View from above satellite

Ground track
Ground track

The orbit data is extracted from the following two-line orbital elements,

1 41874U 16062F   19083.49590366  .00001848  00000-0  87094-4 0  9995
2 41874  51.6507 256.5356 0011171 333.4786  26.5619 15.24780347129302
Epoch (UTC): 24 March 2019 11:54:06
Eccentricity: 0.0011171
inclination: 51.6507°
perigee height: 484 km
apogee height: 499 km
right ascension of ascending node: 256.5356°
argument of perigee: 333.4786°
revolutions per day: 15.24780347
mean anomaly at epoch: 26.5619°
orbit number at epoch: 12930

The dashed part of the orbit path shows where the satellite is in the earth's shadow,  

DLR